This demonstration page uses our WeatherBlox Daily Observations layout. Learn more.

Left ArrowRight Arrow

41.12389, -100.76542

Hourly Observations for March 27, 2015

Temp ( °F °C ) Dew Point ( °F °C ) Humidity (%) Winds ( mph kmh ) Pressure ( in mb ) Visibility ( mi km ) Precip ( " mm )
12:53 am 00:53 Cloudy 33 0.6 27 -2.8 78 78 ENE 7 11 30.23 1024 10 16 0.00 0.00
1:53 am 01:53 Cloudy 32 0 27 -2.8 82 82 E 10 17 30.23 1024 10 16 0.00 0.00
2:14 am 02:14 Cloudy 32 0 27 -3 80 80 E 9 15 30.30 1026 10 16 0.00 0.00
2:53 am 02:53 Cloudy 32 0 26 -3.3 79 79 E 7 11 30.25 1024 10 16 0.00 0.00
3:26 am 03:26 Cloudy with Mist and Fog 31 -0.6 27 -2.8 85 85 S 3 6 30.36 1028 6 10 0.00 0.03
3:53 am 03:53 Cloudy 31 -0.6 28 -2.2 89 89 Calm 30.25 1024 9 14 0.00 0.03
4:53 am 04:53 Cloudy 30 -1.1 28 -2.2 92 92 E 5 7 30.25 1024 10 16 0.00 0.03
5:53 am 05:53 Cloudy 31 -0.6 28 -2.2 89 89 E 6 9 30.24 1024 10 16 0.00 0.00
6:11 am 06:11 Cloudy 31 -0.6 28 -2.2 89 89 ESE 6 9 30.33 1027 10 16 0.00 0.00
6:53 am 06:53 Cloudy with Light Snow 31 -0.6 28 -2.2 89 89 SSE 5 7 30.24 1024 8 13 0.00 0.03
7:53 am 07:53 Cloudy 31 -0.6 28 -2.2 89 89 S 6 9 30.25 1024 10 16 0.00 0.03
8:27 am 08:27 Cloudy 32 0 28 -2.2 85 85 S 7 11 30.30 1026 10 16 0.00 0.00
8:53 am 08:53 Cloudy 32 0 28 -2.2 85 85 S 7 11 30.26 1025 10 16 0.00 0.00
9:53 am 09:53 Cloudy 33 0.6 29 -1.7 85 85 S 9 15 30.26 1025 10 16 0.00 0.00
10:34 am 10:34 Cloudy 34 1 30 -1 87 87 SSW 10 17 30.27 1025 10 16 0.00 0.00
10:53 am 10:53 Cloudy 35 1.7 31 -0.6 85 85 S 10 17 30.23 1024 10 16 0.00 0.00
11:28 am 11:28 Cloudy 37 3 30 -1 75 75 SSW 14 22 30.24 1024 10 16 0.00 0.00
11:53 am 11:53 Cloudy 38 3.3 32 0 79 79 S 13 20 30.19 1022 10 16 0.00 0.00
12:53 pm 12:53 Cloudy 43 6.1 34 1.1 71 71 SSW 16 26 30.16 1021 10 16 0.00 0.00
1:53 pm 13:53 Cloudy 48 8.9 35 1.7 61 61 SW 14 22 30.12 1020 10 16 0.00 0.00
2:17 pm 14:17 Partly Cloudy 51 10.6 37 2.8 59 59 SSW 15 24 30.06 1018 10 16 0.00 0.00
2:53 pm 14:53 Sunny 56 13.3 38 3.3 51 51 SSW 15 24 30.04 1017 10 16 0.00 0.00
3:53 pm 15:53 Sunny 62 16.7 39 3.9 43 43 SW 10 17 29.97 1015 10 16 0.00 0.00
4:53 pm 16:53 Mostly Cloudy 65 18.3 38 3.3 37 37 SW 6 9 29.92 1013 10 16 0.00 0.00
5:53 pm 17:53 Cloudy 66 18.9 33 0.6 29 29 N 13 20 29.92 1013 10 16 0.00 0.00
6:53 pm 18:53 Mostly Cloudy 63 17.2 35 1.7 35 35 NE 15 24 29.94 1014 10 16 0.00 0.00
7:53 pm 19:53 Mostly Sunny 58 14.4 36 2.2 44 44 ENE 10 17 29.95 1014 10 16 0.00 0.00
8:53 pm 20:53 Clear 48 8.9 35 1.7 61 61 E 7 11 29.99 1016 10 16 0.00 0.00
9:53 pm 21:53 Clear 44 6.7 35 1.7 71 71 ESE 7 11 30.00 1016 10 16 0.00 0.00
10:53 pm 22:53 Clear 41 5 34 1.1 76 76 Calm 30.02 1017 10 16 0.00 0.00
11:53 pm 23:53 Clear 40 4.4 33 0.6 77 77 Calm 30.02 1017 10 16 0.00 0.00

Powered by AerisWeather